User: anonymous   Login
Location: Erlenbrunn
(49.1717°N, 7.6142°E)
Time: 01:06:37
(UTC+00:00)
Language:

Cosmos 389 Rocket - Orbit

View from above orbital plane
View from above orbital plane
View from above satellite
View from above satellite

Ground track
Ground track

The orbit data is extracted from the following two-line orbital elements,

1  4814U 70113B   21058.80352163  .00002311  00000-0  64112-4 0  9998
2  4814  81.1417 209.8599 0024778 110.8252 249.5645 15.36153475741771
Epoch (UTC): 27 February 2021 19:17:04
Eccentricity: 0.0024778
inclination: 81.1417°
perigee height: 440 km
apogee height: 474 km
right ascension of ascending node: 209.8599°
argument of perigee: 110.8252°
revolutions per day: 15.36153475
mean anomaly at epoch: 249.5645°
orbit number at epoch: 74177

The dashed part of the orbit path shows where the satellite is in the earth's shadow,  

DLR